Weather History for Wink, TX

Change the Weather History Date:

Thursday, January 16, 2014

  Actual Average Record
Temperature  
Mean Temperature 46 °F -  
Max Temperature 64 °F 58 °F 80 °F (1971)
Min Temperature 28 °F 29 °F 11 °F (1964)
Degree Days  
Heating Degree Days 19    
Moisture  
Dew Point 18 °F    
Average Humidity 41    
Maximum Humidity 67    
Minimum Humidity 16    
Precipitation  
Precipitation 0.00 in - - ()
Sea Level Pressure  
Sea Level Pressure 30.09 in    
Wind  
Wind Speed 8 mph (NE)    
Max Wind Speed 22 mph    
Max Gust Speed 29 mph    
Visibility 10 miles    
Events      
Averages and records for this station are not official NWS values.
T = Trace of Precipitation, MM = Missing Value Source: NWS Daily Summary

Daily Weather History Graph

Daily Weather History Graph

Search for Another Location

Airport:

Trip Planner

Search our weather history database for the weather conditions in past years. The results will help you decide how hot, cold, wet, or windy it might be!

Date:

Astronomy

Jan. 16, 2014 Rise Set
Actual Time 7:52 AM CST 6:12 PM CST
Civil Twilight 7:26 AM CST 6:38 PM CST
Nautical Twilight 6:56 AM CST 7:08 PM CST
Astronomical Twilight 6:27 AM CST 7:38 PM CST
Moon 7:00 PM CST (1/16) 7:53 AM CST (1/16)
Length of Visible Light 11h 12m
Length of Day
10h 19m
Full, 100% of the Moon is Illuminated
Jan 16
Full
Jan 23
Last Quarter
Jan 30
New
Feb 6
First Quarter
Feb 14
Full

Hourly Weather History & Observations

Time (CST) Temp. Windchill Dew Point Humidity Pressure Visibility Wind Dir Wind Speed Gust Speed Precip Events Conditions
12:53 AM 32.0 °F 27.5 °F 19.0 °F 59% 30.03 in 10.0 mi WNW 4.6 mph - N/A   Clear
1:53 AM 32.0 °F 25.6 °F 19.9 °F 61% 30.01 in 10.0 mi NNW 6.9 mph - N/A   Clear
2:53 AM 30.0 °F 23.2 °F 19.0 °F 64% 30.01 in 10.0 mi North 6.9 mph - N/A   Clear
3:53 AM 28.9 °F 23.9 °F 19.0 °F 67% 30.01 in 10.0 mi North 4.6 mph - N/A   Clear
4:53 AM 28.9 °F 21.9 °F 19.0 °F 67% 30.00 in 10.0 mi NNW 6.9 mph - N/A   Clear
5:53 AM 28.0 °F 24.2 °F 18.0 °F 66% 30.01 in 10.0 mi NNE 3.5 mph - N/A   Clear
6:53 AM 28.0 °F 20.8 °F 18.0 °F 66% 30.03 in 10.0 mi NW 6.9 mph - N/A   Clear
7:53 AM 30.0 °F 21.7 °F 19.0 °F 64% 30.06 in 10.0 mi NNW 9.2 mph - N/A   Clear
8:53 AM 37.9 °F 33.5 °F 19.0 °F 47% 30.07 in 10.0 mi NNW 5.8 mph - N/A   Clear
9:53 AM 51.1 °F - 18.0 °F 27% 30.08 in 10.0 mi NNE 10.4 mph - N/A   Clear
10:53 AM 55.0 °F - 19.0 °F 24% 30.11 in 10.0 mi NNE 13.8 mph - N/A   Clear
11:53 AM 60.1 °F - 19.0 °F 20% 30.10 in 10.0 mi East 18.4 mph 28.8 mph N/A   Clear
12:53 PM 62.1 °F - 19.0 °F 19% 30.09 in 10.0 mi East 21.9 mph 28.8 mph N/A   Clear
3:53 PM 64.9 °F - 17.1 °F 16% 30.08 in 10.0 mi ENE 16.1 mph 25.3 mph N/A   Clear
4:53 PM 63.0 °F - 17.1 °F 17% 30.08 in 10.0 mi East 18.4 mph 24.2 mph N/A   Clear
5:53 PM 60.1 °F - 17.1 °F 19% 30.11 in 10.0 mi East 10.4 mph - N/A   Clear
6:53 PM 52.0 °F - 17.1 °F 25% 30.14 in 10.0 mi East 5.8 mph - N/A   Clear
7:53 PM 46.9 °F - 17.1 °F 30% 30.16 in 10.0 mi East 8.1 mph - N/A   Clear
8:53 PM 46.9 °F - 19.0 °F 33% 30.17 in 10.0 mi ENE 8.1 mph - N/A   Clear
9:53 PM 45.0 °F 40.6 °F 19.0 °F 36% 30.18 in 10.0 mi East 8.1 mph - N/A   Clear
10:53 PM 42.1 °F 37.1 °F 19.0 °F 40% 30.18 in 10.0 mi East 8.1 mph - N/A   Clear
11:53 PM 41.0 °F 39.0 °F 19.0 °F 41% 30.19 in 10.0 mi East 3.5 mph - N/A   Clear